Starlink 30855

operational
NORAD ID: 58222 Int'l Des: 2023-170 Owner: SPXS Country: US Constellation: starlink
LEOCIRCULAR

Über Starlink 30855

Beschreibung wird geladen...

Live-Position

3D-Globus wird geladen...

Nächste Überflüge

Höhenverlauf

Altitude vs Time

uPlot chart will show altitude changes over time

Zweizeiliger Elementsatz

1 58222U 23170S 26034.64017615 -.00000208 00000-0 -33826-6 0 9997
2 58222 43.0053 21.2490 0001201 268.9850 91.0855 15.02536643125153
Epoch: 3. Feb. 2026 • Age: 12 hours

Aktueller Status

Höhe 568.5 km
Geschwindigkeit 7.58 km/s
Subsatellitenpunkt -35.29°S, 59.39°E
Startdatum 4. Nov. 2023
Alter 2.2 years
Typ internet

Technische Details

Klassifizierung Payload
Masse 730.00 kg
Trockenmasse 700.00 kg
Gesamtmasse 730.00 kg
Länge 0.30 m
Durchmesser 4.10 m
Spannweite 29.00 m
Form Box + pan
Hersteller SPXS
Bus-Typ Starlink V2M
Phasenstatus In Orbit
Besitzer/Staat SPXS/US

Große Konstellationen

Loading constellations...